FW2442 Weather Reports


time (UTC)temp
F
wind
direction
speed
knots
gust
knots
rain 1hr
in
rain 24hr
in
rain mn
in
humidity
%
barometer
mb
20260902210521 69 10 7.0 8.7 0.00 0.00 0.00 70 1018.2
20260902205539 69 5 7.8 9.6 0.00 0.00 0.00 69 1018.1
20260902204521 69 11 9.6 11.3 0.00 0.00 0.00 69 1018.0
20260902203519 70 16 9.6 13.0 0.00 0.00 0.00 68 1017.9
20260902202541 70 10 10.4 13.0 0.00 0.00 0.00 67 1018.0
20260902201519 70 7 9.6 13.0 0.00 0.00 0.00 67 1018.0
20260902200521 71 6 7.8 12.2 0.00 0.00 0.00 67 1018.0
20260902195518 71 4 8.7 13.0 0.00 0.00 0.00 67 1018.0
20260902194539 71 356 8.7 15.6 0.00 0.00 0.00 68 1018.1
20260902193519 71 348 9.6 15.6 0.00 0.00 0.00 68 1018.1
20260902192521 71 349 7.0 11.3 0.00 0.00 0.00 68 1018.2
20260902191517 71 360 7.0 11.3 0.00 0.00 0.00 67 1018.1
20260902190522 72 355 7.8 10.4 0.00 0.00 0.00 67 1018.1
20260902185519 72 357 7.0 11.3 0.00 0.00 0.00 66 1018.1
20260902184537 72 357 8.7 13.0 0.00 0.00 0.00 66 1018.1
20260902183518 73 350 9.6 14.8 0.00 0.00 0.00 65 1018.0
20260902182542 74 339 7.8 10.4 0.00 0.00 0.00 65 1018.0
20260902181517 74 338 7.0 9.6 0.00 0.00 0.00 65 1017.9
20260902180522 74 347 4.3 6.1 0.00 0.00 0.00 65 1017.9
20260902175518 74 333 0.9 4.3 0.00 0.00 0.00 65 1017.8
20260902174522 74 17 4.3 5.2 0.00 0.00 0.00 65 1017.7
20260902173517 74 16 0.9 3.5 0.00 0.00 0.00 65 1017.5
20260902172518 74 15 4.3 5.2 0.00 0.00 0.00 66 1017.5
20260902171518 74 347 2.6 4.3 0.00 0.00 0.00 65 1017.4
20260902170540 74 6 1.7 4.3 0.00 0.00 0.00 65 1017.4
20260902165518 75 332 0.9 4.3 0.00 0.00 0.00 64 1017.2
20260902164523 75 355 2.6 3.5 0.00 0.00 0.00 64 1017.1
20260902163518 76 341 0.0 2.6 0.00 0.00 0.00 63 1017.0
20260902162521 77 335 0.9 4.3 0.00 0.00 0.00 61 1017.1
20260902161537 77 343 4.3 8.7 0.00 0.00 0.00 60 1017.2
20260902160517 78 302 2.6 6.1 0.00 0.00 0.00 61 1017.2
20260902155518 78 294 4.3 6.1 0.00 0.00 0.00 61 1017.3
20260902154520 78 285 6.1 9.6 0.00 0.00 0.00 59 1017.3
20260902153519 79 284 8.7 11.3 0.00 0.00 0.00 57 1017.3
20260902152521 80 288 9.6 14.8 0.00 0.00 0.00 56 1017.3
20260902151519 80 282 2.6 6.1 0.00 0.00 0.00 55 1017.3
20260902150542 79 269 6.1 9.6 0.00 0.00 0.00 56 1017.4
20260902145518 80 282 10.4 14.8 0.00 0.00 0.00 55 1017.3
20260902144518 80 313 5.2 11.3 0.00 0.00 0.00 54 1017.4
20260902143518 80 276 12.2 16.5 0.00 0.00 0.00 54 1017.5
20260902142522 80 275 5.2 9.6 0.00 0.00 0.00 56 1017.5
20260902141517 79 340 7.0 11.3 0.00 0.00 0.00 56 1017.7
20260902140539 80 297 7.8 17.4 0.00 0.00 0.00 56 1017.7
20260902135517 80 268 9.6 18.2 0.00 0.00 0.00 56 1017.8
20260902134521 80 313 8.7 22.6 0.00 0.00 0.00 57 1017.8
20260902133518 80 295 11.3 16.5 0.00 0.00 0.00 57 1017.9
20260902132542 78 283 6.1 11.3 0.00 0.00 0.00 59 1018.1
20260902131518 78 279 13.9 20.0 0.00 0.00 0.00 60 1018.2
20260902130541 79 299 5.2 13.9 0.00 0.00 0.00 59 1018.2
20260902125517 81 336 10.4 19.1 0.00 0.00 0.00 58 1018.2
20260902124521 80 182 6.1 11.3 0.00 0.00 0.00 57 1018.3
20260902123538 80 228 15.6 22.6 0.00 0.00 0.00 57 1018.4
20260902122520 79 252 11.3 19.1 0.00 0.00 0.00 60 1018.5
20260902121519 77 235 13.0 20.0 0.00 0.00 0.00 62 1018.7
20260902120541 77 242 15.6 22.6 0.00 0.00 0.00 64 1018.7
20260902115538 76 245 10.4 15.6 0.00 0.00 0.00 64 1018.7
20260902114520 76 305 4.3 7.8 0.00 0.00 0.00 65 1018.8
20260902113538 75 3 4.3 9.6 0.00 0.00 0.00 66 1018.9
20260902112516 75 318 9.6 18.2 0.00 0.00 0.00 67 1019.0
20260902111541 76 268 14.8 20.0 0.00 0.00 0.00 66 1019.1
20260902110520 76 284 18.2 26.1 0.00 0.00 0.00 65 1019.2
20260902105537 76 290 13.9 23.5 0.00 0.00 0.00 67 1019.2
20260902104521 76 275 16.5 28.7 0.00 0.00 0.00 67 1019.3
20260902103518 77 300 7.0 14.8 0.00 0.00 0.00 66 1019.3
20260902102539 76 327 5.2 7.8 0.00 0.00 0.00 65 1019.4
20260902101558 76 288 15.6 26.1 0.00 0.00 0.00 65 1019.5
20260902100522 76 301 12.2 16.5 0.00 0.00 0.00 65 1019.6
20260902095518 76 332 8.7 14.8 0.00 0.00 0.00 65 1019.6
20260902094519 77 293 12.2 26.1 0.00 0.00 0.00 64 1019.7
20260902093517 78 294 11.3 16.5 0.00 0.00 0.00 63 1019.7
20260902092522 78 226 8.7 17.4 0.00 0.00 0.00 66 1019.8
20260902091516 76 198 8.7 22.6 0.00 0.00 0.00 67 1019.9
20260902090518 76 258 8.7 14.8 0.00 0.00 0.00 69 1019.8
20260902085519 74 195 12.2 23.5 0.00 0.00 0.00 71 1019.9
20260902084521 72 233 5.2 11.3 0.00 0.00 0.00 74 1019.9
20260902083518 72 265 7.8 11.3 0.00 0.00 0.00 74 1020.1
20260902082522 71 218 6.1 10.4 0.00 0.00 0.00 75 1020.1
20260902081518 70 222 11.3 15.6 0.00 0.00 0.00 76 1020.2
20260902080521 70 179 8.7 15.6 0.00 0.00 0.00 77 1020.1
20260902075519 70 234 5.2 13.9 0.00 0.00 0.00 78 1020.0
20260902074521 70 252 9.6 14.8 0.00 0.00 0.00 77 1020.0
20260902073517 69 330 4.3 7.0 0.00 0.00 0.00 80 1019.9
20260902072518 68 89 1.7 4.3 0.00 0.00 0.00 82 1020.0
20260902071518 67 276 5.2 9.6 0.00 0.00 0.00 85 1020.0
20260902070520 65 307 6.1 10.4 0.00 0.00 0.00 86 1020.1
20260902065517 65 285 9.6 13.9 0.00 0.00 0.00 86 1020.1
20260902064520 65 273 13.9 20.9 0.00 0.00 0.00 86 1020.2
20260902063522 65 298 9.6 14.8 0.00 0.00 0.00 87 1020.0
20260902062601 64 272 12.2 16.5 0.00 0.00 0.00 87 1019.9
20260902061518 65 306 8.7 15.6 0.00 0.00 0.00 87 1020.0
20260902060518 64 306 10.4 16.5 0.00 0.00 0.00 87 1019.9
20260902055522 64 283 13.0 22.6 0.00 0.00 0.00 89 1019.8
20260902054523 63 268 13.9 19.1 0.00 0.00 0.00 90 1019.9
20260902053519 62 279 12.2 18.2 0.00 0.00 0.00 91 1019.8
20260902052519 62 287 10.4 18.2 0.00 0.00 0.00 91 1019.7
20260902051557 62 279 9.6 12.2 0.00 0.00 0.00 91 1019.7
20260902050519 62 271 8.7 13.0 0.00 0.00 0.00 92 1019.7
20260902045518 62 273 7.0 13.0 0.00 0.00 0.00 91 1019.6
20260902044542 62 269 5.2 7.8 0.00 0.00 0.00 91 1019.6
20260902043521 62 186 3.5 7.0 0.00 0.00 0.00 91 1019.5
20260902042541 62 336 3.5 7.0 0.00 0.00 0.00 91 1019.3
20260902041517 61 322 4.3 7.0 0.00 0.00 0.00 92 1019.3
20260902040522 61 351 3.5 7.8 0.00 0.00 0.00 91 1019.3
20260902035518 61 331 4.3 7.0 0.00 0.00 0.00 91 1019.3
20260902034540 61 304 4.3 9.6 0.00 0.00 0.00 91 1019.3
20260902033518 61 348 5.2 7.8 0.00 0.00 0.00 91 1019.2
20260902032521 61 265 2.6 4.3 0.00 0.00 0.00 92 1019.3
20260902031517 61 316 4.3 8.7 0.00 0.00 0.00 92 1019.2
20260902025517 61 297 7.8 17.4 0.00 0.00 0.00 92 1019.4
20260902024522 60 337 5.2 8.7 0.00 0.00 0.00 91 1019.2
20260902023518 60 270 3.5 6.1 0.00 0.00 0.00 91 1019.2
20260902022519 60 327 7.0 15.6 0.00 0.00 0.00 90 1019.0
20260902021521 60 183 2.6 4.3 0.00 0.00 0.00 90 1019.0
20260902020541 60 139 6.1 9.6 0.00 0.00 0.00 89 1018.9
20260902015519 61 137 2.6 6.1 0.00 0.00 0.00 89 1018.8
20260902014517 61 20 11.3 18.2 0.00 0.00 0.00 90 1018.8
20260902013517 60 22 7.8 9.6 0.00 0.00 0.00 89 1018.8
20260902012521 61 57 3.5 8.7 0.00 0.00 0.00 88 1018.9
20260902011517 62 151 5.2 7.8 0.00 0.00 0.00 87 1018.8
20260902010517 62 176 1.7 6.1 0.00 0.00 0.00 87 1018.6
20260902005517 62 14 4.3 7.0 0.00 0.00 0.00 88 1018.5
20260902004518 62 349 9.6 14.8 0.00 0.00 0.00 88 1018.5
20260902003518 62 329 4.3 6.1 0.00 0.00 0.00 88 1018.5
20260902002522 61 26 6.1 9.6 0.00 0.00 0.00 87 1018.5
20260902001519 62 153 2.6 6.1 0.00 0.00 0.00 87 1018.6
20260902000521 62 128 1.7 4.3 0.00 0.00 0.00 85 1018.6
20260901235518 63 156 0.9 4.3 0.00 0.00 0.00 84 1018.5
20260901234522 64 161 2.6 6.1 0.00 0.00 0.00 83 1018.4
20260901233518 64 26 2.6 4.3 0.00 0.00 0.00 82 1018.3
20260901232519 64 359 4.3 7.0 0.00 0.00 0.00 81 1018.2
20260901231517 64 3 7.8 9.6 0.00 0.00 0.00 82 1018.2
20260901230521 64 12 8.7 10.4 0.00 0.00 0.00 82 1018.1
20260901225518 64 14 7.8 9.6 0.00 0.00 0.00 83 1018.2
20260901224522 63 7 4.3 7.0 0.00 0.00 0.00 85 1018.3
20260901223518 64 350 1.7 6.1 0.00 0.00 0.00 84 1018.4
20260901222521 64 289 1.7 6.1 0.00 0.00 0.00 84 1018.5
20260901221517 64 307 4.3 7.8 0.00 0.00 0.00 84 1018.5
20260901220539 64 328 4.3 9.6 0.00 0.00 0.00 84 1018.4
20260901215517 64 314 4.3 9.6 0.00 0.00 0.00 84 1018.4
20260901214521 64 313 5.2 8.7 0.00 0.00 0.00 84 1018.3
20260901213538 64 299 0.9 4.3 0.00 0.00 0.00 84 1018.3
20260901212518 65 299 0.9 4.3 0.00 0.00 0.00 84 1018.2
20260901211517 65 317 0.9 4.3 0.00 0.00 0.00 83 1018.2